| time (UTC) | temp C | wind direction | speed KPH | gust KPH | rain 1hr cm | rain 24hr cm | rain mn cm | humidity % | barometer mb |
| 20260510202215 | 6 | 312 | 0.0 | 0.0 | 0.00 | 0.00 | 0.00 | 64 | 1014.8 |
| 20260510200739 | 6 | 311 | 0.0 | 0.0 | 0.00 | 0.00 | 0.00 | 63 | 1014.9 |
| 20260510200217 | 7 | 312 | 0.0 | 1.6 | 0.00 | 0.00 | 0.00 | 62 | 1015.0 |
| 20260510194738 | 7 | 6 | 0.0 | 3.2 | 0.00 | 0.00 | 0.00 | 60 | 1015.1 |
| 20260510193737 | 7 | 310 | 0.0 | 4.8 | 0.00 | 0.00 | 0.00 | 59 | 1015.1 |
| 20260510192737 | 7 | 25 | 1.6 | 4.8 | 0.00 | 0.00 | 0.00 | 58 | 1015.2 |
| 20260510191736 | 8 | 269 | 0.0 | 3.2 | 0.00 | 0.00 | 0.00 | 59 | 1015.0 |
| 20260510190737 | 8 | 320 | 1.6 | 4.8 | 0.00 | 0.00 | 0.00 | 58 | 1015.3 |
| 20260510185736 | 8 | 273 | 0.0 | 9.7 | 0.00 | 0.00 | 0.00 | 55 | 1015.4 |
| 20260510184734 | 8 | 313 | 3.2 | 9.7 | 0.00 | 0.00 | 0.00 | 54 | 1015.5 |
| 20260510183734 | 8 | 313 | 1.6 | 11.3 | 0.00 | 0.00 | 0.00 | 55 | 1015.4 |
| 20260510183216 | 9 | 282 | 1.6 | 6.4 | 0.00 | 0.00 | 0.00 | 54 | 1015.4 |
| 20260510181735 | 9 | 318 | 1.6 | 9.7 | 0.00 | 0.00 | 0.00 | 57 | 1015.4 |
| 20260510180733 | 8 | 303 | 4.8 | 6.4 | 0.00 | 0.00 | 0.00 | 58 | 1015.5 |
| 20260510175734 | 8 | 310 | 1.6 | 6.4 | 0.00 | 0.00 | 0.00 | 56 | 1015.8 |
| 20260510174732 | 8 | 16 | 3.2 | 11.3 | 0.00 | 0.00 | 0.00 | 55 | 1015.7 |
| 20260510173733 | 9 | 344 | 1.6 | 11.3 | 0.00 | 0.00 | 0.00 | 55 | 1015.7 |
| 20260510173208 | 10 | 289 | 1.6 | 11.3 | 0.00 | 0.00 | 0.00 | 53 | 1015.9 |
| 20260510171731 | 10 | 325 | 3.2 | 9.7 | 0.00 | 0.00 | 0.00 | 53 | 1016.0 |
| 20260510170731 | 10 | 291 | 0.0 | 4.8 | 0.00 | 0.00 | 0.00 | 54 | 1016.2 |
| 20260510165730 | 10 | 350 | 1.6 | 9.7 | 0.00 | 0.00 | 0.00 | 55 | 1016.3 |
| 20260510165215 | 10 | 239 | 3.2 | 9.7 | 0.00 | 0.00 | 0.00 | 57 | 1016.3 |
| 20260510163731 | 10 | 327 | 4.8 | 11.3 | 0.00 | 0.00 | 0.00 | 56 | 1016.3 |
| 20260510162729 | 11 | 335 | 4.8 | 11.3 | 0.00 | 0.00 | 0.00 | 56 | 1016.6 |
| 20260510161729 | 11 | 6 | 4.8 | 11.3 | 0.00 | 0.00 | 0.00 | 56 | 1016.7 |
| 20260510161206 | 12 | 295 | 4.8 | 12.9 | 0.00 | 0.00 | 0.00 | 52 | 1016.6 |
| 20260510155658 | 11 | 278 | 1.6 | 11.3 | 0.00 | 0.00 | 0.00 | 53 | 1016.9 |
| 20260510154657 | 12 | 240 | 1.6 | 11.3 | 0.00 | 0.00 | 0.00 | 52 | 1017.1 |
| 20260510153657 | 11 | 284 | 3.2 | 11.3 | 0.00 | 0.00 | 0.00 | 53 | 1017.0 |
| 20260510152657 | 11 | 21 | 4.8 | 12.9 | 0.00 | 0.00 | 0.00 | 53 | 1017.1 |
| 20260510152119 | 11 | 4 | 0.0 | 12.9 | 0.00 | 0.00 | 0.00 | 54 | 1017.3 |
| 20260510150627 | 12 | 6 | 4.8 | 17.7 | 0.00 | 0.00 | 0.00 | 53 | 1017.1 |
| 20260510145625 | 12 | 280 | 4.8 | 16.1 | 0.00 | 0.00 | 0.00 | 53 | 1017.6 |
| 20260510144626 | 12 | 251 | 1.6 | 14.5 | 0.00 | 0.00 | 0.00 | 52 | 1017.4 |
| 20260510143555 | 13 | 146 | 0.0 | 11.3 | 0.00 | 0.00 | 0.00 | 47 | 1017.4 |
| 20260510142556 | 12 | 314 | 1.6 | 11.3 | 0.00 | 0.00 | 0.00 | 52 | 1017.6 |
| 20260510141555 | 13 | 329 | 6.4 | 14.5 | 0.00 | 0.00 | 0.00 | 49 | 1017.9 |
| 20260510140553 | 13 | 294 | 1.6 | 9.7 | 0.00 | 0.00 | 0.00 | 49 | 1017.7 |
| 20260510135523 | 12 | 237 | 1.6 | 9.7 | 0.00 | 0.00 | 0.00 | 52 | 1018.0 |
| 20260510134523 | 12 | 8 | 4.8 | 16.1 | 0.00 | 0.00 | 0.00 | 53 | 1018.0 |
| 20260510133522 | 12 | 352 | 8.0 | 16.1 | 0.00 | 0.00 | 0.00 | 53 | 1017.9 |
| 20260510132522 | 12 | 4 | 3.2 | 14.5 | 0.00 | 0.00 | 0.00 | 54 | 1017.9 |
| 20260510131451 | 12 | 336 | 4.8 | 12.9 | 0.00 | 0.00 | 0.00 | 57 | 1018.2 |
| 20260510130930 | 12 | 277 | 3.2 | 11.3 | 0.00 | 0.00 | 0.00 | 56 | 1018.1 |
| 20260510125451 | 12 | 352 | 3.2 | 16.1 | 0.00 | 0.00 | 0.00 | 58 | 1018.2 |
| 20260510124450 | 11 | 353 | 9.7 | 16.1 | 0.00 | 0.00 | 0.00 | 59 | 1018.5 |
| 20260510123451 | 12 | 301 | 6.4 | 12.9 | 0.00 | 0.00 | 0.00 | 59 | 1018.5 |
| 20260510122450 | 12 | 345 | 3.2 | 11.3 | 0.00 | 0.00 | 0.00 | 58 | 1018.5 |
| 20260510121449 | 12 | 241 | 1.6 | 12.9 | 0.00 | 0.00 | 0.00 | 59 | 1018.5 |
| 20260510120450 | 12 | 282 | 4.8 | 11.3 | 0.00 | 0.00 | 0.00 | 57 | 1018.7 |
| 20260510115448 | 12 | 242 | 1.6 | 11.3 | 0.00 | 0.00 | 0.00 | 60 | 1018.6 |
| 20260510114449 | 12 | 286 | 1.6 | 11.3 | 0.00 | 0.00 | 0.00 | 61 | 1018.7 |
| 20260510113447 | 12 | 297 | 4.8 | 11.3 | 0.00 | 0.00 | 0.00 | 60 | 1019.0 |
| 20260510112446 | 11 | 250 | 3.2 | 12.9 | 0.00 | 0.00 | 0.00 | 63 | 1018.7 |
| 20260510111417 | 11 | 39 | 1.6 | 12.9 | 0.00 | 0.00 | 0.00 | 64 | 1019.0 |
| 20260510110417 | 11 | 266 | 0.0 | 12.9 | 0.00 | 0.00 | 0.00 | 66 | 1019.1 |
| 20260510105416 | 11 | 295 | 1.6 | 12.9 | 0.00 | 0.00 | 0.00 | 65 | 1019.2 |
| 20260510104416 | 11 | 275 | 3.2 | 12.9 | 0.00 | 0.00 | 0.00 | 65 | 1019.2 |
| 20260510103416 | 11 | 351 | 4.8 | 12.9 | 0.00 | 0.00 | 0.00 | 66 | 1019.2 |
| 20260510102414 | 11 | 305 | 3.2 | 12.9 | 0.00 | 0.00 | 0.00 | 66 | 1019.2 |
| 20260510101416 | 11 | 297 | 3.2 | 14.5 | 0.00 | 0.00 | 0.00 | 66 | 1019.1 |
| 20260510100857 | 11 | 348 | 6.4 | 14.5 | 0.00 | 0.00 | 0.00 | 66 | 1019.1 |
| 20260510095413 | 11 | 319 | 4.8 | 12.9 | 0.00 | 0.00 | 0.00 | 66 | 1019.3 |
| 20260510094413 | 11 | 274 | 0.0 | 11.3 | 0.00 | 0.00 | 0.00 | 64 | 1019.2 |
| 20260510093414 | 11 | 288 | 1.6 | 11.3 | 0.00 | 0.00 | 0.00 | 67 | 1019.4 |
| 20260510092413 | 11 | 238 | 3.2 | 11.3 | 0.00 | 0.00 | 0.00 | 66 | 1019.4 |
| 20260510091412 | 10 | 296 | 3.2 | 11.3 | 0.00 | 0.00 | 0.00 | 68 | 1019.5 |
| 20260510090412 | 11 | 199 | 3.2 | 9.7 | 0.00 | 0.00 | 0.00 | 69 | 1019.7 |
| 20260510085412 | 11 | 2 | 3.2 | 12.9 | 0.00 | 0.00 | 0.00 | 70 | 1019.6 |
| 20260510084848 | 10 | 268 | 1.6 | 9.7 | 0.00 | 0.00 | 0.00 | 73 | 1019.7 |
| 20260510083850 | 10 | 310 | 1.6 | 9.7 | 0.00 | 0.00 | 0.00 | 75 | 1019.7 |
| 20260510082410 | 10 | 279 | 0.0 | 11.3 | 0.00 | 0.00 | 0.00 | 76 | 1019.6 |
| 20260510081852 | 10 | 259 | 3.2 | 12.9 | 0.00 | 0.00 | 0.00 | 77 | 1019.7 |
| 20260510080409 | 10 | 103 | 0.0 | 9.7 | 0.00 | 0.00 | 0.00 | 77 | 1019.7 |
| 20260510075408 | 10 | 333 | 1.6 | 12.9 | 0.00 | 0.00 | 0.00 | 77 | 1019.7 |
| 20260510074849 | 10 | 18 | 3.2 | 9.7 | 0.00 | 0.00 | 0.00 | 78 | 1019.8 |
| 20260510073409 | 10 | 287 | 3.2 | 12.9 | 0.00 | 0.00 | 0.00 | 78 | 1019.6 |
| 20260510072409 | 10 | 280 | 3.2 | 11.3 | 0.00 | 0.00 | 0.00 | 78 | 1019.6 |
| 20260510071409 | 10 | 289 | 4.8 | 11.3 | 0.00 | 0.00 | 0.00 | 79 | 1019.4 |
| 20260510070338 | 10 | 354 | 1.6 | 9.7 | 0.00 | 0.00 | 0.00 | 80 | 1019.3 |
| 20260510065336 | 10 | 308 | 1.6 | 4.8 | 0.00 | 0.00 | 0.00 | 79 | 1019.4 |
| 20260510064336 | 10 | 347 | 3.2 | 16.1 | 0.00 | 0.00 | 0.00 | 79 | 1019.1 |
| 20260510063335 | 10 | 270 | 3.2 | 16.1 | 0.00 | 0.00 | 0.00 | 78 | 1019.0 |
| 20260510062307 | 10 | 350 | 4.8 | 12.9 | 0.00 | 0.00 | 0.00 | 77 | 1019.0 |
| 20260510061306 | 10 | 312 | 1.6 | 12.9 | 0.00 | 0.00 | 0.00 | 78 | 1018.9 |
| 20260510060304 | 10 | 311 | 3.2 | 11.3 | 0.00 | 0.00 | 0.00 | 79 | 1018.7 |
| 20260510055307 | 10 | 242 | 3.2 | 11.3 | 0.00 | 0.00 | 0.00 | 80 | 1018.7 |
| 20260510054303 | 10 | 253 | 1.6 | 9.7 | 0.00 | 0.00 | 0.00 | 82 | 1018.6 |
| 20260510053303 | 10 | 343 | 1.6 | 12.9 | 0.00 | 0.00 | 0.00 | 84 | 1018.4 |
| 20260510052748 | 9 | 308 | 3.2 | 11.3 | 0.00 | 0.00 | 0.00 | 84 | 1018.8 |
| 20260510051302 | 9 | 287 | 1.6 | 6.4 | 0.00 | 0.00 | 0.00 | 86 | 1018.7 |
| 20260510050301 | 9 | 285 | 0.0 | 6.4 | 0.00 | 0.00 | 0.00 | 87 | 1018.7 |
| 20260510045301 | 9 | 308 | 1.6 | 6.4 | 0.00 | 0.00 | 0.00 | 88 | 1018.7 |
| 20260510044734 | 8 | 292 | 0.0 | 6.4 | 0.00 | 0.00 | 0.00 | 89 | 1018.9 |
| 20260510043300 | 8 | 277 | 1.6 | 4.8 | 0.00 | 0.00 | 0.00 | 89 | 1018.9 |
| 20260510042300 | 8 | 291 | 0.0 | 3.2 | 0.00 | 0.00 | 0.00 | 89 | 1019.1 |
| 20260510040734 | 8 | 302 | 0.0 | 1.6 | 0.00 | 0.00 | 0.00 | 88 | 1019.0 |
| 20260510035300 | 8 | 302 | 0.0 | 1.6 | 0.00 | 0.00 | 0.00 | 87 | 1019.1 |
| 20260510034300 | 8 | 300 | 0.0 | 1.6 | 0.00 | 0.00 | 0.00 | 87 | 1018.9 |
| 20260510033258 | 8 | 282 | 0.0 | 4.8 | 0.00 | 0.00 | 0.00 | 87 | 1019.0 |
| 20260510032257 | 8 | 311 | 0.0 | 3.2 | 0.00 | 0.00 | 0.00 | 88 | 1019.1 |
| 20260510031258 | 8 | 312 | 0.0 | 3.2 | 0.00 | 0.00 | 0.00 | 89 | 1019.2 |
| 20260510030732 | 8 | 300 | 0.0 | 1.6 | 0.00 | 0.00 | 0.00 | 89 | 1019.5 |
| 20260510025258 | 8 | 302 | 0.0 | 1.6 | 0.00 | 0.00 | 0.00 | 89 | 1019.4 |
| 20260510024257 | 8 | 299 | 0.0 | 3.2 | 0.00 | 0.00 | 0.00 | 89 | 1019.5 |
| 20260510023257 | 8 | 298 | 1.6 | 3.2 | 0.00 | 0.00 | 0.00 | 89 | 1019.5 |
| 20260510022256 | 8 | 312 | 0.0 | 1.6 | 0.00 | 0.00 | 0.00 | 88 | 1019.3 |
| 20260510021255 | 8 | 355 | 0.0 | 1.6 | 0.00 | 0.00 | 0.00 | 88 | 1019.4 |
| 20260510020254 | 8 | 298 | 1.6 | 1.6 | 0.00 | 0.00 | 0.00 | 88 | 1019.3 |
| 20260510015254 | 8 | 342 | 0.0 | 1.6 | 0.00 | 0.00 | 0.00 | 88 | 1019.3 |
| 20260510014254 | 9 | 352 | 0.0 | 1.6 | 0.00 | 0.00 | 0.00 | 87 | 1019.5 |
| 20260510013223 | 9 | 349 | 0.0 | 3.2 | 0.00 | 0.00 | 0.00 | 87 | 1019.5 |
| 20260510012223 | 9 | 330 | 0.0 | 3.2 | 0.00 | 0.00 | 0.00 | 87 | 1019.5 |
| 20260510011222 | 9 | 317 | 0.0 | 3.2 | 0.00 | 0.00 | 0.00 | 87 | 1019.3 |
| 20260510010224 | 9 | 335 | 0.0 | 3.2 | 0.00 | 0.00 | 0.00 | 87 | 1019.5 |
| 20260510005629 | 9 | 278 | 0.0 | 3.2 | 0.00 | 0.00 | 0.00 | 86 | 1019.2 |
| 20260510004623 | 10 | 318 | 0.0 | 4.8 | 0.00 | 0.00 | 0.00 | 86 | 1019.2 |
| 20260510003153 | 10 | 305 | 0.0 | 4.8 | 0.00 | 0.00 | 0.00 | 85 | 1019.5 |
| 20260510002150 | 10 | 281 | 3.2 | 11.3 | 0.00 | 0.00 | 0.00 | 83 | 1019.4 |
| 20260510001629 | 10 | 254 | 1.6 | 6.4 | 0.00 | 0.00 | 0.00 | 83 | 1019.6 |
| 20260510000632 | 11 | 285 | 0.0 | 4.8 | 0.00 | 0.00 | 0.00 | 83 | 1019.9 |
| 20260509235149 | 11 | 319 | 0.0 | 4.8 | 0.00 | 0.00 | 0.00 | 84 | 1020.0 |
| 20260509234149 | 11 | 335 | 1.6 | 4.8 | 0.00 | 0.00 | 0.00 | 84 | 1019.9 |
| 20260509233149 | 11 | 297 | 1.6 | 4.8 | 0.00 | 0.00 | 0.00 | 85 | 1020.0 |
| 20260509232150 | 11 | 282 | 0.0 | 4.8 | 0.00 | 0.00 | 0.00 | 84 | 1019.7 |
| 20260509231626 | 11 | 277 | 0.0 | 4.8 | 0.00 | 0.00 | 0.00 | 84 | 1019.8 |
| 20260509230147 | 11 | 244 | 0.0 | 6.4 | 0.00 | 0.00 | 0.00 | 84 | 1019.6 |
| 20260509225631 | 11 | 321 | 1.6 | 9.7 | 0.00 | 0.00 | 0.00 | 84 | 1019.8 |
| 20260509224147 | 11 | 262 | 0.0 | 11.3 | 0.00 | 0.00 | 0.00 | 84 | 1019.4 |
| 20260509223146 | 11 | 333 | 3.2 | 9.7 | 0.00 | 0.00 | 0.00 | 84 | 1019.7 |
| 20260509222147 | 11 | 290 | 0.0 | 3.2 | 0.00 | 0.00 | 0.00 | 85 | 1019.5 |
| 20260509221145 | 11 | 315 | 1.6 | 6.4 | 0.00 | 0.00 | 0.00 | 85 | 1019.6 |
| 20260509220145 | 11 | 343 | 1.6 | 4.8 | 0.00 | 0.00 | 0.00 | 86 | 1019.5 |
| 20260509215144 | 11 | 266 | 0.0 | 3.2 | 0.00 | 0.00 | 0.00 | 87 | 1019.3 |
| 20260509214114 | 11 | 250 | 0.0 | 3.2 | 0.00 | 0.00 | 0.00 | 87 | 1019.3 |
| 20260509213546 | 11 | 271 | 0.0 | 1.6 | 0.00 | 0.00 | 0.00 | 87 | 1019.2 |
| 20260509212043 | 11 | 328 | 1.6 | 3.2 | 0.00 | 0.00 | 0.00 | 87 | 1019.5 |
| 20260509211045 | 11 | 304 | 0.0 | 3.2 | 0.00 | 0.00 | 0.00 | 87 | 1019.6 |
| 20260509210044 | 11 | 353 | 0.0 | 4.8 | 0.00 | 0.00 | 0.00 | 87 | 1019.5 |
| 20260509204011 | 11 | 273 | 0.0 | 4.8 | 0.00 | 0.00 | 0.00 | 86 | 1019.7 |
| 20260509203011 | 11 | 260 | 1.6 | 4.8 | 0.00 | 0.00 | 0.00 | 86 | 1019.3 |
| 20260509202451 | 11 | 262 | 0.0 | 9.7 | 0.00 | 0.00 | 0.00 | 86 | 1019.4 |